千帆星座-59 (QIANFAN-59)

导读

QIANFAN-59 是中国北斗卫星导航系统的一部分,属于北斗三号系统的地球静止轨道卫星。该卫星由中国自主研发,主要用于提供高精度定位、导航和授时服务,增强区域和全球服务能力。QIANFAN-59 的成功发射和运行,进一步提升了北斗系统的稳定性和覆盖范围,广泛应用于交通、农业、通信、应急救援等多个领域,对推动国家信息化建设和提升国际竞争力具有重要意义。

基本信息
目录编号:
62789
目录名称:
QIANFAN-59
国际标识:
2025-016E
轨道中心:
EARTH
卫星名称:
千帆星座-59
卫星全名:
千帆星座-59 (QIANFAN-59)
卫星状态:
在轨 (已飞行596 天)
发射日期:
2025-01-23 UTC
国别 :
中国 (CN)
星等 :
--
轨道信息
数据来源 国际轨道数据 AOE轨道数据
星历时间 2026-09-10T23:10:10+0800
10小时前
查看轨道信息
2026-09-07T02:00:00+0800
4天前
查看轨道信息
半长轴 7446.631km 7446.615km
偏心率 0.0012395 0.0012548
轨道倾角 88.966° 88.970°
近地点辐角 283.654° 300.538°
升交点赤经 74.875° 75.274°
平近点角 76.323° 269.536°
近地点 1059.263km 1059.133km
远地点 1077.725km 1077.823km
周期 106.586分钟 106.585分钟
每日圈数 13.510239 13.510284
详细信息
卫星平台:
59
覆盖范围:
全球
运营商:
上海垣信卫星科技有限公司
运营商所在国:
中国
使用方式:
暂无
卫星简介
千帆星座,也被称为“G60星链”计划,是中国版“星链”的重要组成部分,旨在打造一个由1.4万多颗低轨宽频多媒体卫星构成的庞大星座。千帆星座计划由上海垣信卫星科技有限公司负责实施,于2023年启动建设。该项目是我国第二个低轨卫星大星座,旨在通过构建庞大的卫星网络,为全球用户提供高质量的通信和宽带互联网服务。
2D轨道图
3D轨道图
轨道高度分析图
轨道倾角分析图
轨道综合分析图
查看轨道综合分析图
与全量物体交会距离演化趋势
与全量物体交会风险概率演化趋势